Year,Month,Day,Hour,Minute,Value (Times are PST for temperature in C)
2014,09,13,00,00,12.30
2014,09,13,00,01,12.20
2014,09,13,00,02,12.20
2014,09,13,00,03,12.20
2014,09,13,00,04,12.20
2014,09,13,00,05,12.10
2014,09,13,00,06,12.10
2014,09,13,00,07,12.10
2014,09,13,00,08,12.10
2014,09,13,00,09,12.10
2014,09,13,00,10,12.10
2014,09,13,00,11,12.10
2014,09,13,00,12,12.10
2014,09,13,00,13,12.10
2014,09,13,00,14,12.10
2014,09,13,00,15,12.10
2014,09,13,00,16,12.10
2014,09,13,00,17,12.10
2014,09,13,00,18,12.00
2014,09,13,00,19,12.00
2014,09,13,00,20,11.90
2014,09,13,00,21,11.90
2014,09,13,00,22,11.90
2014,09,13,00,23,11.90
2014,09,13,00,24,11.80
2014,09,13,00,25,11.80
2014,09,13,00,26,11.80
2014,09,13,00,27,11.70
2014,09,13,00,28,11.70
2014,09,13,00,29,11.70
2014,09,13,00,30,11.70
2014,09,13,00,31,11.70
2014,09,13,00,32,11.70
2014,09,13,00,33,11.70
2014,09,13,00,34,11.60
2014,09,13,00,35,11.60
2014,09,13,00,36,11.60
2014,09,13,00,37,11.60
2014,09,13,00,38,11.60
2014,09,13,00,39,11.60
2014,09,13,00,40,11.60
2014,09,13,00,41,11.60
2014,09,13,00,42,11.60
2014,09,13,00,43,11.60
2014,09,13,00,44,11.60
2014,09,13,00,45,11.60
2014,09,13,00,46,11.70
2014,09,13,00,47,11.70
2014,09,13,00,48,11.70
2014,09,13,00,49,11.70
2014,09,13,00,50,11.70
2014,09,13,00,51,11.70
2014,09,13,00,52,11.70
2014,09,13,00,53,11.70
2014,09,13,00,54,11.70
2014,09,13,00,55,11.70
2014,09,13,00,56,11.70
2014,09,13,00,57,11.70
2014,09,13,00,58,11.70
2014,09,13,00,59,11.60
2014,09,13,01,00,11.60
2014,09,13,01,01,11.60
2014,09,13,01,02,11.60
2014,09,13,01,03,11.60
2014,09,13,01,04,11.60
2014,09,13,01,05,11.60
2014,09,13,01,06,11.60
2014,09,13,01,07,11.60
2014,09,13,01,08,11.60
2014,09,13,01,09,11.50
2014,09,13,01,10,11.50
2014,09,13,01,11,11.50
2014,09,13,01,12,11.50
2014,09,13,01,13,11.50
2014,09,13,01,14,11.40
2014,09,13,01,15,11.40
2014,09,13,01,16,11.40
2014,09,13,01,17,11.40
2014,09,13,01,18,11.40
2014,09,13,01,19,11.40
2014,09,13,01,20,11.40
2014,09,13,01,21,11.30
2014,09,13,01,22,11.30
2014,09,13,01,23,11.30
2014,09,13,01,24,11.30
2014,09,13,01,25,11.30
2014,09,13,01,26,11.30
2014,09,13,01,27,11.20
2014,09,13,01,28,11.20
2014,09,13,01,29,11.20
2014,09,13,01,30,11.20
2014,09,13,01,31,11.20
2014,09,13,01,32,11.20
2014,09,13,01,33,11.10
2014,09,13,01,34,11.10
2014,09,13,01,35,11.10
2014,09,13,01,36,11.10
2014,09,13,01,37,11.10
2014,09,13,01,38,11.10
2014,09,13,01,39,11.10
2014,09,13,01,40,11.00
2014,09,13,01,41,11.00
2014,09,13,01,42,11.00
2014,09,13,01,43,11.00
2014,09,13,01,44,11.00
2014,09,13,01,45,11.00
2014,09,13,01,46,11.00
2014,09,13,01,47,10.90
2014,09,13,01,48,10.90
2014,09,13,01,49,10.90
2014,09,13,01,50,10.90
2014,09,13,01,51,10.90
2014,09,13,01,52,10.80
2014,09,13,01,53,10.80
2014,09,13,01,54,10.80
2014,09,13,01,55,10.80
2014,09,13,01,56,10.80
2014,09,13,01,57,10.80
2014,09,13,01,58,10.70
2014,09,13,01,59,10.70
2014,09,13,02,00,10.70
2014,09,13,02,01,10.70
2014,09,13,02,02,10.70
2014,09,13,02,03,10.70
2014,09,13,02,04,10.70
2014,09,13,02,05,10.70
2014,09,13,02,06,10.60
2014,09,13,02,07,10.60
2014,09,13,02,08,10.60
2014,09,13,02,09,10.60
2014,09,13,02,10,10.60
2014,09,13,02,11,10.60
2014,09,13,02,12,10.50
2014,09,13,02,13,10.50
2014,09,13,02,14,10.50
2014,09,13,02,15,10.50
2014,09,13,02,16,10.50
2014,09,13,02,17,10.50
2014,09,13,02,18,10.50
2014,09,13,02,19,10.40
2014,09,13,02,20,10.40
2014,09,13,02,21,10.40
2014,09,13,02,22,10.40
2014,09,13,02,23,10.40
2014,09,13,02,24,10.40
2014,09,13,02,25,10.40
2014,09,13,02,26,10.40
2014,09,13,02,27,10.40
2014,09,13,02,28,10.40
2014,09,13,02,29,10.40
2014,09,13,02,30,10.40
2014,09,13,02,31,10.50
2014,09,13,02,32,10.50
2014,09,13,02,33,10.50
2014,09,13,02,34,10.50
2014,09,13,02,35,10.50
2014,09,13,02,36,10.50
2014,09,13,02,37,10.50
2014,09,13,02,38,10.50
2014,09,13,02,39,10.50
2014,09,13,02,40,10.40
2014,09,13,02,41,10.50
2014,09,13,02,42,10.50
2014,09,13,02,43,10.50
2014,09,13,02,44,10.50
2014,09,13,02,45,10.50
2014,09,13,02,46,10.50
2014,09,13,02,47,10.50
2014,09,13,02,48,10.40
2014,09,13,02,49,10.40
2014,09,13,02,50,10.40
2014,09,13,02,51,10.40
2014,09,13,02,52,10.40
2014,09,13,02,53,10.40
2014,09,13,02,54,10.40
2014,09,13,02,55,10.30
2014,09,13,02,56,10.30
2014,09,13,02,57,10.30
2014,09,13,02,58,10.30
2014,09,13,02,59,10.30
2014,09,13,03,00,10.30
2014,09,13,03,01,10.30
2014,09,13,03,02,10.20
2014,09,13,03,03,10.20
2014,09,13,03,04,10.20
2014,09,13,03,05,10.30
2014,09,13,03,06,10.30
2014,09,13,03,07,10.20
2014,09,13,03,08,10.20
2014,09,13,03,09,10.20
2014,09,13,03,10,10.20
2014,09,13,03,11,10.20
2014,09,13,03,12,10.20
2014,09,13,03,13,10.20
2014,09,13,03,14,10.20
2014,09,13,03,15,10.20
2014,09,13,03,16,10.20
2014,09,13,03,17,10.20
2014,09,13,03,18,10.20
2014,09,13,03,19,10.20
2014,09,13,03,20,10.20
2014,09,13,03,21,10.20
2014,09,13,03,22,10.10
2014,09,13,03,23,10.10
2014,09,13,03,24,10.10
2014,09,13,03,25,10.20
2014,09,13,03,26,10.10
2014,09,13,03,27,10.10
2014,09,13,03,28,10.10
2014,09,13,03,29,10.10
2014,09,13,03,30,10.10
2014,09,13,03,31,10.10
2014,09,13,03,32,10.10
2014,09,13,03,33,10.10
2014,09,13,03,34,10.10
2014,09,13,03,35,10.10
2014,09,13,03,36,10.10
2014,09,13,03,37,10.10
2014,09,13,03,38,10.10
2014,09,13,03,39,10.00
2014,09,13,03,40,10.00
2014,09,13,03,41,10.00
2014,09,13,03,42,10.00
2014,09,13,03,43,10.00
2014,09,13,03,44,10.00
2014,09,13,03,45,10.00
2014,09,13,03,46,10.00
2014,09,13,03,47,10.00
2014,09,13,03,48,10.00
2014,09,13,03,49,10.00
2014,09,13,03,50,10.00
2014,09,13,03,51,9.90
2014,09,13,03,52,9.90
2014,09,13,03,53,9.90
2014,09,13,03,54,9.90
2014,09,13,03,55,9.90
2014,09,13,03,56,9.90
2014,09,13,03,57,9.90
2014,09,13,03,58,9.80
2014,09,13,03,59,9.80
2014,09,13,04,00,9.80
2014,09,13,04,01,9.80
2014,09,13,04,02,9.80
2014,09,13,04,03,9.80
2014,09,13,04,04,9.80
2014,09,13,04,05,9.80
2014,09,13,04,06,9.80
2014,09,13,04,07,9.80
2014,09,13,04,08,9.80
2014,09,13,04,09,9.80
2014,09,13,04,10,9.80
2014,09,13,04,11,9.80
2014,09,13,04,12,9.80
2014,09,13,04,13,9.70
2014,09,13,04,14,9.70
2014,09,13,04,15,9.70
2014,09,13,04,16,9.70
2014,09,13,04,17,9.70
2014,09,13,04,18,9.70
2014,09,13,04,19,9.70
2014,09,13,04,20,9.70
2014,09,13,04,21,9.70
2014,09,13,04,22,9.70
2014,09,13,04,23,9.70
2014,09,13,04,24,9.60
2014,09,13,04,25,9.60
2014,09,13,04,26,9.60
2014,09,13,04,27,9.60
2014,09,13,04,28,9.60
2014,09,13,04,29,9.60
2014,09,13,04,30,9.60
2014,09,13,04,31,9.60
2014,09,13,04,32,9.60
2014,09,13,04,33,9.60
2014,09,13,04,34,9.60
2014,09,13,04,35,9.60
2014,09,13,04,36,9.60
2014,09,13,04,37,9.60
2014,09,13,04,38,9.60
2014,09,13,04,39,9.60
2014,09,13,04,40,9.60
2014,09,13,04,41,9.50
2014,09,13,04,42,9.50
2014,09,13,04,43,9.50
2014,09,13,04,44,9.50
2014,09,13,04,45,9.50
2014,09,13,04,46,9.50
2014,09,13,04,47,9.50
2014,09,13,04,48,9.40
2014,09,13,04,49,9.40
2014,09,13,04,50,9.40
2014,09,13,04,51,9.40
2014,09,13,04,52,9.40
2014,09,13,04,53,9.40
2014,09,13,04,54,9.40
2014,09,13,04,55,9.40
2014,09,13,04,56,9.40
2014,09,13,04,57,9.40
2014,09,13,04,58,9.50
2014,09,13,04,59,9.50
2014,09,13,05,00,9.40
2014,09,13,05,01,9.40
2014,09,13,05,02,9.40
2014,09,13,05,03,9.40
2014,09,13,05,04,9.40
2014,09,13,05,05,9.40
2014,09,13,05,06,9.40
2014,09,13,05,07,9.40
2014,09,13,05,08,9.40
2014,09,13,05,09,9.40
2014,09,13,05,10,9.40
2014,09,13,05,11,9.40
2014,09,13,05,12,9.40
2014,09,13,05,13,9.40
2014,09,13,05,14,9.40
2014,09,13,05,15,9.40
2014,09,13,05,16,9.30
2014,09,13,05,17,9.30
2014,09,13,05,18,9.30
2014,09,13,05,19,9.30
2014,09,13,05,20,9.30
2014,09,13,05,21,9.30
2014,09,13,05,22,9.30
2014,09,13,05,23,9.30
2014,09,13,05,24,9.30
2014,09,13,05,25,9.30
2014,09,13,05,26,9.30
2014,09,13,05,27,9.30
2014,09,13,05,28,9.20
2014,09,13,05,29,9.20
2014,09,13,05,30,9.20
2014,09,13,05,31,9.20
2014,09,13,05,32,9.10
2014,09,13,05,33,9.10
2014,09,13,05,34,9.10
2014,09,13,05,35,9.10
2014,09,13,05,36,9.10
2014,09,13,05,37,9.00
2014,09,13,05,38,9.00
2014,09,13,05,39,9.00
2014,09,13,05,40,9.00
2014,09,13,05,41,9.00
2014,09,13,05,42,9.00
2014,09,13,05,43,9.00
2014,09,13,05,44,8.90
2014,09,13,05,45,8.90
2014,09,13,05,46,8.90
2014,09,13,05,47,8.90
2014,09,13,05,48,8.90
2014,09,13,05,49,8.90
2014,09,13,05,50,8.90
2014,09,13,05,51,8.90
2014,09,13,05,52,8.90
2014,09,13,05,53,8.90
2014,09,13,05,54,8.90
2014,09,13,05,55,8.90
2014,09,13,05,56,8.90
2014,09,13,05,57,8.90
2014,09,13,05,58,8.90
2014,09,13,05,59,8.90
2014,09,13,06,00,8.90
2014,09,13,06,01,8.90
2014,09,13,06,02,8.90
2014,09,13,06,03,8.90
2014,09,13,06,04,8.90
2014,09,13,06,05,8.90
2014,09,13,06,06,8.90
2014,09,13,06,07,8.90
2014,09,13,06,08,8.90
2014,09,13,06,09,8.90
2014,09,13,06,10,8.80
2014,09,13,06,11,8.80
2014,09,13,06,12,8.80
2014,09,13,06,13,8.80
2014,09,13,06,14,8.80
2014,09,13,06,15,8.80
2014,09,13,06,16,8.80
2014,09,13,06,17,8.70
2014,09,13,06,18,8.70
2014,09,13,06,19,8.70
2014,09,13,06,20,8.70
2014,09,13,06,21,8.70
2014,09,13,06,22,8.70
2014,09,13,06,23,8.70
2014,09,13,06,24,8.70
2014,09,13,06,25,8.70
2014,09,13,06,26,8.70
2014,09,13,06,27,8.70
2014,09,13,06,28,8.70
2014,09,13,06,29,8.70
2014,09,13,06,30,8.70
2014,09,13,06,31,8.70
2014,09,13,06,32,8.70
2014,09,13,06,33,8.70
2014,09,13,06,34,8.70
2014,09,13,06,35,8.70
2014,09,13,06,36,8.70
2014,09,13,06,37,8.80
2014,09,13,06,38,8.80
2014,09,13,06,39,8.80
2014,09,13,06,40,8.80
2014,09,13,06,41,8.80
2014,09,13,06,42,8.80
2014,09,13,06,43,8.80
2014,09,13,06,44,8.80
2014,09,13,06,45,8.80
2014,09,13,06,46,8.90
2014,09,13,06,47,8.90
2014,09,13,06,48,8.90
2014,09,13,06,49,8.90
2014,09,13,06,50,8.90
2014,09,13,06,51,8.90
2014,09,13,06,52,8.90
2014,09,13,06,53,8.90
2014,09,13,06,54,8.90
2014,09,13,06,55,9.00
2014,09,13,06,56,9.00
2014,09,13,06,57,9.00
2014,09,13,06,58,9.00
2014,09,13,06,59,8.90
2014,09,13,07,00,8.90
2014,09,13,07,01,8.90
2014,09,13,07,02,8.90
2014,09,13,07,03,8.90
2014,09,13,07,04,8.90
2014,09,13,07,05,8.90
2014,09,13,07,06,8.80
2014,09,13,07,07,8.80
2014,09,13,07,08,8.80
2014,09,13,07,09,8.80
2014,09,13,07,10,8.80
2014,09,13,07,11,8.80
2014,09,13,07,12,8.80
2014,09,13,07,13,8.80
2014,09,13,07,14,8.80
2014,09,13,07,15,8.80
2014,09,13,07,16,8.80
2014,09,13,07,17,8.80
2014,09,13,07,18,8.80
2014,09,13,07,19,8.80
2014,09,13,07,20,8.80
2014,09,13,07,21,8.80
2014,09,13,07,22,8.80
2014,09,13,07,23,8.90
2014,09,13,07,24,8.90
2014,09,13,07,25,8.90
2014,09,13,07,26,8.90
2014,09,13,07,27,8.90
2014,09,13,07,28,9.00
2014,09,13,07,29,9.00
2014,09,13,07,30,9.00
2014,09,13,07,31,9.10
2014,09,13,07,32,9.10
2014,09,13,07,33,9.10
2014,09,13,07,34,9.20
2014,09,13,07,35,9.20
2014,09,13,07,36,9.20
2014,09,13,07,37,9.20
2014,09,13,07,38,9.20
2014,09,13,07,39,9.20
2014,09,13,07,40,9.20
2014,09,13,07,41,9.10
2014,09,13,07,42,9.10
2014,09,13,07,43,9.10
2014,09,13,07,44,9.10
2014,09,13,07,45,9.10
2014,09,13,07,46,9.10
2014,09,13,07,47,9.10
2014,09,13,07,48,9.10
2014,09,13,07,49,9.10
2014,09,13,07,50,9.10
2014,09,13,07,51,9.10
2014,09,13,07,52,9.10
2014,09,13,07,53,9.20
2014,09,13,07,54,9.20
2014,09,13,07,55,9.20
2014,09,13,07,56,9.20
2014,09,13,07,57,9.20
2014,09,13,07,58,9.20
2014,09,13,07,59,9.20
2014,09,13,08,00,9.30
2014,09,13,08,01,9.30
2014,09,13,08,02,9.30
2014,09,13,08,03,9.30
2014,09,13,08,04,9.40
2014,09,13,08,05,9.40
2014,09,13,08,06,9.50
2014,09,13,08,07,9.50
2014,09,13,08,08,9.60
2014,09,13,08,09,9.60
2014,09,13,08,10,9.70
2014,09,13,08,11,9.80
2014,09,13,08,12,9.80
2014,09,13,08,13,9.90
2014,09,13,08,14,9.90
2014,09,13,08,15,10.00
2014,09,13,08,16,10.00
2014,09,13,08,17,10.10
2014,09,13,08,18,10.20
2014,09,13,08,19,10.20
2014,09,13,08,20,10.30
2014,09,13,08,21,10.30
2014,09,13,08,22,10.40
2014,09,13,08,23,10.40
2014,09,13,08,24,10.50
2014,09,13,08,25,10.50
2014,09,13,08,26,10.60
2014,09,13,08,27,10.60
2014,09,13,08,28,10.70
2014,09,13,08,29,10.70
2014,09,13,08,30,10.70
2014,09,13,08,31,10.80
2014,09,13,08,32,10.80
2014,09,13,08,33,10.90
2014,09,13,08,34,10.90
2014,09,13,08,35,11.00
2014,09,13,08,36,11.00
2014,09,13,08,37,11.10
2014,09,13,08,38,11.10
2014,09,13,08,39,11.20
2014,09,13,08,40,11.20
2014,09,13,08,41,11.30
2014,09,13,08,42,11.30
2014,09,13,08,43,11.40
2014,09,13,08,44,11.40
2014,09,13,08,45,11.50
2014,09,13,08,46,11.50
2014,09,13,08,47,11.60
2014,09,13,08,48,11.60
2014,09,13,08,49,11.70
2014,09,13,08,50,11.70
2014,09,13,08,51,11.70
2014,09,13,08,52,11.80
2014,09,13,08,53,11.90
2014,09,13,08,54,11.90
2014,09,13,08,55,12.00
2014,09,13,08,56,12.00
2014,09,13,08,57,12.10
2014,09,13,08,58,12.20
2014,09,13,08,59,12.20
2014,09,13,09,00,12.30
2014,09,13,09,01,12.40
2014,09,13,09,02,12.50
2014,09,13,09,03,12.50
2014,09,13,09,04,12.60
2014,09,13,09,05,12.70
2014,09,13,09,06,12.80
2014,09,13,09,07,12.90
2014,09,13,09,08,12.90
2014,09,13,09,09,13.00
2014,09,13,09,10,13.20
2014,09,13,09,11,13.30
2014,09,13,09,12,13.40
2014,09,13,09,13,13.50
2014,09,13,09,14,13.60
2014,09,13,09,15,13.70
2014,09,13,09,16,13.80
2014,09,13,09,17,13.80
2014,09,13,09,18,13.90
2014,09,13,09,19,14.00
2014,09,13,09,20,14.10
2014,09,13,09,21,14.20
2014,09,13,09,22,14.30
2014,09,13,09,23,14.40
2014,09,13,09,24,14.50
2014,09,13,09,25,14.60
2014,09,13,09,26,14.70
2014,09,13,09,27,14.80
2014,09,13,09,28,14.80
2014,09,13,09,29,14.90
2014,09,13,09,30,15.00
2014,09,13,09,31,15.00
2014,09,13,09,32,15.00
2014,09,13,09,33,15.00
2014,09,13,09,34,15.00
2014,09,13,09,35,15.00
2014,09,13,09,36,15.10
2014,09,13,09,37,15.10
2014,09,13,09,38,15.20
2014,09,13,09,39,15.20
2014,09,13,09,40,15.30
2014,09,13,09,41,15.40
2014,09,13,09,42,15.40
2014,09,13,09,43,15.50
2014,09,13,09,44,15.60
2014,09,13,09,45,15.60
2014,09,13,09,46,15.60
2014,09,13,09,47,15.70
2014,09,13,09,48,15.80
2014,09,13,09,49,15.90
2014,09,13,09,50,16.00
2014,09,13,09,51,16.10
2014,09,13,09,52,16.30
2014,09,13,09,53,16.40
2014,09,13,09,54,16.50
2014,09,13,09,55,16.70
2014,09,13,09,56,16.80
2014,09,13,09,57,16.90
2014,09,13,09,58,17.10
2014,09,13,09,59,17.20
2014,09,13,10,00,17.30
2014,09,13,10,01,17.40
2014,09,13,10,02,17.60
2014,09,13,10,03,17.70
2014,09,13,10,04,17.90
2014,09,13,10,05,18.10
2014,09,13,10,06,18.30
2014,09,13,10,07,18.40
2014,09,13,10,08,18.50
2014,09,13,10,09,18.60
2014,09,13,10,10,18.70
2014,09,13,10,11,18.70
2014,09,13,10,12,18.80
2014,09,13,10,13,18.80
2014,09,13,10,14,18.80
2014,09,13,10,15,18.80
2014,09,13,10,16,18.90
2014,09,13,10,17,18.90
2014,09,13,10,18,19.00
2014,09,13,10,19,19.00
2014,09,13,10,20,19.10
2014,09,13,10,21,19.20
2014,09,13,10,22,19.30
2014,09,13,10,23,19.30
2014,09,13,10,24,19.30
2014,09,13,10,25,19.40
2014,09,13,10,26,19.40
2014,09,13,10,27,19.40
2014,09,13,10,28,19.50
2014,09,13,10,29,19.50
2014,09,13,10,30,19.60
2014,09,13,10,31,19.60
2014,09,13,10,32,19.70
2014,09,13,10,33,19.70
2014,09,13,10,34,19.80
2014,09,13,10,35,19.80
2014,09,13,10,36,19.80
2014,09,13,10,37,19.90
2014,09,13,10,38,20.00
2014,09,13,10,39,20.00
2014,09,13,10,40,20.10
2014,09,13,10,41,20.20
2014,09,13,10,42,20.20
2014,09,13,10,43,20.30
2014,09,13,10,44,20.40
2014,09,13,10,45,20.50
2014,09,13,10,46,20.60
2014,09,13,10,47,20.70
2014,09,13,10,48,20.70
2014,09,13,10,49,20.80
2014,09,13,10,50,20.90
2014,09,13,10,51,21.00
2014,09,13,10,52,21.10
2014,09,13,10,53,21.10
2014,09,13,10,54,21.20
2014,09,13,10,55,21.30
2014,09,13,10,56,21.30
2014,09,13,10,57,21.40
2014,09,13,10,58,21.40
2014,09,13,10,59,21.40
2014,09,13,11,00,21.40
2014,09,13,11,01,21.40
2014,09,13,11,02,21.40
2014,09,13,11,03,21.50
2014,09,13,11,04,21.50
2014,09,13,11,05,21.60
2014,09,13,11,06,21.60
2014,09,13,11,07,21.70
2014,09,13,11,08,21.70
2014,09,13,11,09,21.80
2014,09,13,11,10,21.80
2014,09,13,11,11,21.90
2014,09,13,11,12,22.00
2014,09,13,11,13,22.10
2014,09,13,11,14,22.20
2014,09,13,11,15,22.30
2014,09,13,11,16,22.30
2014,09,13,11,17,22.40
2014,09,13,11,18,22.50
2014,09,13,11,19,22.60
2014,09,13,11,20,22.70
2014,09,13,11,21,22.70
2014,09,13,11,22,22.80
2014,09,13,11,23,22.90
2014,09,13,11,24,22.90
2014,09,13,11,25,23.00
2014,09,13,11,26,23.00
2014,09,13,11,27,23.00
2014,09,13,11,28,22.90
2014,09,13,11,29,22.90
2014,09,13,11,30,22.80
2014,09,13,11,31,22.80
2014,09,13,11,32,22.70
2014,09,13,11,33,22.70
2014,09,13,11,34,22.60
2014,09,13,11,35,22.60
2014,09,13,11,36,22.50
2014,09,13,11,37,22.50
2014,09,13,11,38,22.50
2014,09,13,11,39,22.50
2014,09,13,11,40,22.60
2014,09,13,11,41,22.60
2014,09,13,11,42,22.60
2014,09,13,11,43,22.70
2014,09,13,11,44,22.80
2014,09,13,11,45,22.80
2014,09,13,11,46,22.90
2014,09,13,11,47,22.90
2014,09,13,11,48,22.90
2014,09,13,11,49,23.00
2014,09,13,11,50,23.00
2014,09,13,11,51,23.10
2014,09,13,11,52,23.20
2014,09,13,11,53,23.20
2014,09,13,11,54,23.10
2014,09,13,11,55,23.10
2014,09,13,11,56,23.10
2014,09,13,11,57,23.10
2014,09,13,11,58,23.10
2014,09,13,11,59,23.10
2014,09,13,12,00,23.20
2014,09,13,12,01,23.20
2014,09,13,12,02,23.30
2014,09,13,12,03,23.30
2014,09,13,12,04,23.40
2014,09,13,12,05,23.40
2014,09,13,12,06,23.50
2014,09,13,12,07,23.50
2014,09,13,12,08,23.60
2014,09,13,12,09,23.60
2014,09,13,12,10,23.70
2014,09,13,12,11,23.80
2014,09,13,12,12,23.90
2014,09,13,12,13,23.90
2014,09,13,12,14,24.00
2014,09,13,12,15,24.00
2014,09,13,12,16,24.10
2014,09,13,12,17,24.10
2014,09,13,12,18,24.20
2014,09,13,12,19,24.20
2014,09,13,12,20,24.20
2014,09,13,12,21,24.30
2014,09,13,12,22,24.40
2014,09,13,12,23,24.40
2014,09,13,12,24,24.50
2014,09,13,12,25,24.60
2014,09,13,12,26,24.60
2014,09,13,12,27,24.70
2014,09,13,12,28,24.80
2014,09,13,12,29,24.80
2014,09,13,12,30,24.90
2014,09,13,12,31,25.00
2014,09,13,12,32,25.10
2014,09,13,12,33,25.10
2014,09,13,12,34,25.20
2014,09,13,12,35,25.30
2014,09,13,12,36,25.30
2014,09,13,12,37,25.40
2014,09,13,12,38,25.40
2014,09,13,12,39,25.50
2014,09,13,12,40,25.50
2014,09,13,12,41,25.60
2014,09,13,12,42,25.60
2014,09,13,12,43,25.60
2014,09,13,12,44,25.70
2014,09,13,12,45,25.70
2014,09,13,12,46,25.80
2014,09,13,12,47,25.80
2014,09,13,12,48,25.80
2014,09,13,12,49,25.80
2014,09,13,12,50,25.80
2014,09,13,12,51,25.80
2014,09,13,12,52,25.80
2014,09,13,12,53,25.80
2014,09,13,12,54,25.70
2014,09,13,12,55,25.80
2014,09,13,12,56,25.80
2014,09,13,12,57,25.80
2014,09,13,12,58,25.80
2014,09,13,12,59,25.80
2014,09,13,13,00,25.90
2014,09,13,13,01,25.90
2014,09,13,13,02,25.90
2014,09,13,13,03,25.90
2014,09,13,13,04,25.90
2014,09,13,13,05,25.90
2014,09,13,13,06,25.90
2014,09,13,13,07,25.90
2014,09,13,13,08,25.90
2014,09,13,13,09,25.90
2014,09,13,13,10,25.90
2014,09,13,13,11,25.90
2014,09,13,13,12,25.90
2014,09,13,13,13,25.90
2014,09,13,13,14,25.90
2014,09,13,13,15,25.90
2014,09,13,13,16,25.90
2014,09,13,13,17,25.90
2014,09,13,13,18,25.90
2014,09,13,13,19,25.90
2014,09,13,13,20,25.90
2014,09,13,13,21,26.00
2014,09,13,13,22,26.00
2014,09,13,13,23,26.00
2014,09,13,13,24,26.10
2014,09,13,13,25,26.10
2014,09,13,13,26,26.10
2014,09,13,13,27,26.10
2014,09,13,13,28,26.20
2014,09,13,13,29,26.20
2014,09,13,13,30,26.20
2014,09,13,13,31,26.30
2014,09,13,13,32,26.30
2014,09,13,13,33,26.40
2014,09,13,13,34,26.40
2014,09,13,13,35,26.40
2014,09,13,13,36,26.40
2014,09,13,13,37,26.40
2014,09,13,13,38,26.30
2014,09,13,13,39,26.20
2014,09,13,13,40,26.10
2014,09,13,13,41,26.10
2014,09,13,13,42,26.10
2014,09,13,13,43,26.10
2014,09,13,13,44,26.20
2014,09,13,13,45,26.20
2014,09,13,13,46,26.20
2014,09,13,13,47,26.20
2014,09,13,13,48,26.20
2014,09,13,13,49,26.20
2014,09,13,13,50,26.20
2014,09,13,13,51,26.20
2014,09,13,13,52,26.20
2014,09,13,13,53,26.20
2014,09,13,13,54,26.20
2014,09,13,13,55,26.20
2014,09,13,13,56,26.20
2014,09,13,13,57,26.30
2014,09,13,13,58,26.40
2014,09,13,13,59,26.40
2014,09,13,14,00,26.40
2014,09,13,14,01,26.40
2014,09,13,14,02,26.50
2014,09,13,14,03,26.50
2014,09,13,14,04,26.50
2014,09,13,14,05,26.50
2014,09,13,14,06,26.40
2014,09,13,14,07,26.30
2014,09,13,14,08,26.30
2014,09,13,14,09,26.30
2014,09,13,14,10,26.30
2014,09,13,14,11,26.30
2014,09,13,14,12,26.20
2014,09,13,14,13,26.20
2014,09,13,14,14,26.10
2014,09,13,14,15,26.10
2014,09,13,14,16,26.10
2014,09,13,14,17,26.10
2014,09,13,14,18,26.10
2014,09,13,14,19,26.20
2014,09,13,14,20,26.20
2014,09,13,14,21,26.20
2014,09,13,14,22,26.30
2014,09,13,14,23,26.30
2014,09,13,14,24,26.30
2014,09,13,14,25,26.30
2014,09,13,14,26,26.30
2014,09,13,14,27,26.20
2014,09,13,14,28,26.10
2014,09,13,14,29,26.10
2014,09,13,14,30,26.00
2014,09,13,14,31,26.00
2014,09,13,14,32,26.00
2014,09,13,14,33,26.00
2014,09,13,14,34,26.10
2014,09,13,14,35,26.20
2014,09,13,14,36,26.20
2014,09,13,14,37,26.30
2014,09,13,14,38,26.40
2014,09,13,14,39,26.40
2014,09,13,14,40,26.50
2014,09,13,14,41,26.50
2014,09,13,14,42,26.60
2014,09,13,14,43,26.60
2014,09,13,14,44,26.60
2014,09,13,14,45,26.60
2014,09,13,14,46,26.60
2014,09,13,14,47,26.70
2014,09,13,14,48,26.70
2014,09,13,14,49,26.70
2014,09,13,14,50,26.80
2014,09,13,14,51,26.80
2014,09,13,14,52,26.80
2014,09,13,14,53,26.80
2014,09,13,14,54,26.80
2014,09,13,14,55,26.80
2014,09,13,14,56,26.80
2014,09,13,14,57,26.80
2014,09,13,14,58,26.90
2014,09,13,14,59,26.90
2014,09,13,15,00,27.00
2014,09,13,15,01,27.00
2014,09,13,15,02,26.90
2014,09,13,15,03,26.90
2014,09,13,15,04,26.80
2014,09,13,15,05,26.80
2014,09,13,15,06,26.70
2014,09,13,15,07,26.70
2014,09,13,15,08,26.80
2014,09,13,15,09,26.80
2014,09,13,15,10,26.80
2014,09,13,15,11,26.90
2014,09,13,15,12,26.90
2014,09,13,15,13,26.90
2014,09,13,15,14,26.90
2014,09,13,15,15,27.00
2014,09,13,15,16,27.00
2014,09,13,15,17,27.10
2014,09,13,15,18,27.10
2014,09,13,15,19,27.10
2014,09,13,15,20,27.10
2014,09,13,15,21,27.10
2014,09,13,15,22,27.10
2014,09,13,15,23,27.10
2014,09,13,15,24,27.20
2014,09,13,15,25,27.20
2014,09,13,15,26,27.30
2014,09,13,15,27,27.30
2014,09,13,15,28,27.40
2014,09,13,15,29,27.50
2014,09,13,15,30,27.50
2014,09,13,15,31,27.50
2014,09,13,15,32,27.50
2014,09,13,15,33,27.40
2014,09,13,15,34,27.30
2014,09,13,15,35,27.20
2014,09,13,15,36,27.20
2014,09,13,15,37,27.20
2014,09,13,15,38,27.20
2014,09,13,15,39,27.20
2014,09,13,15,40,27.20
2014,09,13,15,41,27.10
2014,09,13,15,42,27.10
2014,09,13,15,43,27.10
2014,09,13,15,44,27.20
2014,09,13,15,45,27.10
2014,09,13,15,46,27.10
2014,09,13,15,47,27.10
2014,09,13,15,48,27.10
2014,09,13,15,49,27.10
2014,09,13,15,50,27.10
2014,09,13,15,51,27.10
2014,09,13,15,52,27.00
2014,09,13,15,53,27.00
2014,09,13,15,54,27.00
2014,09,13,15,55,27.00
2014,09,13,15,56,27.10
2014,09,13,15,57,27.20
2014,09,13,15,58,27.30
2014,09,13,15,59,27.30
2014,09,13,16,00,27.40
2014,09,13,16,01,27.40
2014,09,13,16,02,27.40
2014,09,13,16,03,27.50
2014,09,13,16,04,27.50
2014,09,13,16,05,27.60
2014,09,13,16,06,27.60
2014,09,13,16,07,27.60
2014,09,13,16,08,27.60
2014,09,13,16,09,27.60
2014,09,13,16,10,27.60
2014,09,13,16,11,27.70
2014,09,13,16,12,27.70
2014,09,13,16,13,27.70
2014,09,13,16,14,27.70
2014,09,13,16,15,27.80
2014,09,13,16,16,27.80
2014,09,13,16,17,27.90
2014,09,13,16,18,28.00
2014,09,13,16,19,28.00
2014,09,13,16,20,28.10
2014,09,13,16,21,28.20
2014,09,13,16,22,28.20
2014,09,13,16,23,28.30
2014,09,13,16,24,28.30
2014,09,13,16,25,28.40
2014,09,13,16,26,28.40
2014,09,13,16,27,28.40
2014,09,13,16,28,28.40
2014,09,13,16,29,28.50
2014,09,13,16,30,28.50
2014,09,13,16,31,28.40
2014,09,13,16,32,28.40
2014,09,13,16,33,28.40
2014,09,13,16,34,28.30
2014,09,13,16,35,28.30
2014,09,13,16,36,28.30
2014,09,13,16,37,28.30
2014,09,13,16,38,28.30
2014,09,13,16,39,28.30
2014,09,13,16,40,28.30
2014,09,13,16,41,28.30
2014,09,13,16,42,28.30
2014,09,13,16,43,28.40
2014,09,13,16,44,28.40
2014,09,13,16,45,28.40
2014,09,13,16,46,28.50
2014,09,13,16,47,28.50
2014,09,13,16,48,28.60
2014,09,13,16,49,28.50
2014,09,13,16,50,28.50
2014,09,13,16,51,28.50
2014,09,13,16,52,28.60
2014,09,13,16,53,28.60
2014,09,13,16,54,28.60
2014,09,13,16,55,28.60
2014,09,13,16,56,28.60
2014,09,13,16,57,28.60
2014,09,13,16,58,28.60
2014,09,13,16,59,28.50
2014,09,13,17,00,28.40
2014,09,13,17,01,28.40
2014,09,13,17,02,28.40
2014,09,13,17,03,28.40
2014,09,13,17,04,28.40
2014,09,13,17,05,28.50
2014,09,13,17,06,28.50
2014,09,13,17,07,28.60
2014,09,13,17,08,28.60
2014,09,13,17,09,28.60
2014,09,13,17,10,28.60
2014,09,13,17,11,28.60
2014,09,13,17,12,28.70
2014,09,13,17,13,28.70
2014,09,13,17,14,28.70
2014,09,13,17,15,28.60
2014,09,13,17,16,28.60
2014,09,13,17,17,28.60
2014,09,13,17,18,28.60
2014,09,13,17,19,28.60
2014,09,13,17,20,28.50
2014,09,13,17,21,28.50
2014,09,13,17,22,28.50
2014,09,13,17,23,28.60
2014,09,13,17,24,28.60
2014,09,13,17,25,28.50
2014,09,13,17,26,28.50
2014,09,13,17,27,28.40
2014,09,13,17,28,28.20
2014,09,13,17,29,28.00
2014,09,13,17,30,27.90